Regional Weather Roundup
Issued by NWS Goodland, KS

Home | Current Version | Previous Version | Graphics & Text | Print | Product List | Glossary On
Versions: 1 2 3 4 5 6 7 8 9 10 11 12 13 14 15 16 17 18 19 20 21 22 23 24 25 26 27 28 29 30 31 32 33 34 35 36 37 38 39 40 41 42 43 44 45 46 47 48 49 50
000
ASUS43 KGLD 241808
RWRGLD

GOODLAND FORECAST AREA HOURLY WEATHER ROUNDUP
NATIONAL WEATHER SERVICE GOODLAND KS
1200 PM MDT THU APR 24 2014

...OFFICIAL OBSERVATIONS...

CITY           SKY/WX    TMP DP  RH WIND       PRES   REMARKS
GOODLAND KS    SUNNY     62  12  14 NW22G30   29.96F
HILL CITY KS   FAIR      65  32  29 N14G24    29.90F
IMPERIAL NEB   SUNNY     64  12  13 NW17G28   29.92F
MCCOOK NEB     SUNNY     67  19  16 N20       29.89F
AKRON CO       SUNNY     56  16  20 NW14G25   29.98F
BURLINGTON CO  SUNNY     61  12  14 NW23G30   29.99F
LIMON CO       SUNNY     51  19  28 VRB5      30.02F
$$

...UNOFFICIAL OBSERVATIONS...

CITY           SKY/WX    TMP DP  RH WIND       PRES   REMARKS
COLBY KS       SUNNY     66  25  20 W20G28    29.94F
LENORA KS        N/A     63  32  31 NW20        N/A
LEOTI KS         N/A     63  32  31 N20         N/A
NORTON KS      SUNNY     61  30  31 NW15G26   29.88S
OBERLIN KS     FAIR      66  18  15 N16G28    29.90
SHARON SPRINGS   N/A     63  18  17 NW20G30     N/A
ST FRANCIS KS  SUNNY     63   1   8 NW12G24   29.94F
WAKEENEY KS      N/A     64  32  31 MISG        N/A
TRENTON NEB      N/A     63  32  31 NW18        N/A
KIT CARSON CO    N/A     59  19  21 MISG        N/A
$$



USA.gov is the U.S. government's official web portal to all federal, state and local government web resources and services.